Date String (YYYY-MM-DD hh:mm:ss) UTC,Instrument flags,absolute air pressure of the measurement (hPa),sample flow rate (lpm),inlet stack bypass flow (lpm),air temperature of the measurement (°C),ambient temperature measured by the external sensor (°C),aerosol sample conditioner tube jacket temperature (°C),OPC LED temperature (°C),internal box temperature (°C),relative humidity of the measurement (%),span deviation,mass concentration of particles derived from Lorenz-Mie calculation of OPC scattering (μg/m³),mass concentration of particles derived from Lorenz-Mie calculation of OPC scattering (μg/m³),mass concentration of particles derived from Lorenz-Mie calculation of OPC scattering (μg/m³)
DateTimeUTC,F1_M11,P_M11,Q1_M11,Q2_M11,T1_M11,T2_M11,T3_M11,T4_M11,T5_M11,U1_M11,ZSPAN_M11,X0_M11,X2_M11,X1_M11
2023-08-28 18:00:00,SystemResetWarning,0838.2,5.01,000.00,029.4,025.6,000.0,037.5,029.9,32.7,0000.0,0006.13,0003.72,0003.51
2023-08-28 18:01:00,SystemResetWarning,0838.1,5.00,000.00,029.4,026.0,000.0,037.5,030.0,33.0,0000.0,0006.25,0003.73,0003.50
2023-08-28 18:02:00,SystemResetWarning,0838.2,4.99,000.00,029.4,026.4,000.0,037.5,030.1,33.6,0000.0,0006.33,0003.75,0003.50
2023-08-28 18:03:00,SystemResetWarning,0838.2,4.99,000.00,029.4,026.6,000.0,037.6,030.2,33.7,0000.0,0006.42,0003.77,0003.51
2023-08-28 18:04:00,SystemResetWarning,0838.2,5.00,000.00,029.4,026.2,000.0,037.5,030.1,33.1,0000.0,0006.50,0003.77,0003.50
2023-08-28 18:05:00,SystemResetWarning,0838.2,5.00,000.00,029.4,024.8,000.0,037.4,029.8,32.4,0000.0,0006.53,0003.78,0003.51
2023-08-28 18:06:00,SystemResetWarning,0838.2,5.00,000.00,029.3,024.2,000.0,037.2,029.7,32.4,0000.0,0006.42,0003.79,0003.51
2023-08-28 18:07:00,SystemResetWarning,0838.2,5.01,000.00,029.2,024.3,000.0,037.2,029.6,32.5,0000.0,0006.40,0003.79,0003.51
2023-08-28 18:08:00,SystemResetWarning,0838.1,5.00,000.00,029.1,024.7,000.0,037.3,029.5,33.9,0000.0,0006.45,0003.79,0003.51
2023-08-28 18:09:00,SystemResetWarning,0838.0,4.99,000.00,029.0,025.1,000.0,037.3,029.7,34.4,0000.0,0006.44,0003.78,0003.51
2023-08-28 18:10:00,SystemResetWarning,0837.9,5.01,000.00,029.0,025.6,000.0,037.3,029.8,34.2,0000.0,0006.38,0003.79,0003.52
2023-08-28 18:11:00,SystemResetWarning,0838.0,5.00,000.00,029.0,025.9,000.0,037.3,029.9,34.2,0000.0,0005.78,0003.79,0003.53
2023-08-28 18:12:00,SystemResetWarning,0838.0,5.00,000.00,029.0,026.2,000.0,037.3,030.0,34.4,0000.0,0005.65,0003.79,0003.54
2023-08-28 18:13:00,SystemResetWarning,0838.0,4.99,000.00,029.0,026.5,000.0,037.3,030.0,34.7,0000.0,0005.62,0003.76,0003.53
2023-08-28 18:14:00,SystemResetWarning,0837.9,5.00,000.00,029.1,026.7,000.0,037.3,030.1,34.9,0000.0,0005.69,0003.79,0003.54
2023-08-28 18:15:00,SystemResetWarning,0837.8,5.00,000.00,029.2,025.8,000.0,037.2,030.0,35.8,0000.0,0005.67,0003.80,0003.55
2023-08-28 18:16:00,SystemResetWarning,0837.8,5.01,000.00,029.4,024.6,000.0,037.1,029.9,35.7,0000.0,0005.63,0003.79,0003.55
2023-08-28 18:17:00,SystemResetWarning,0838.0,5.00,000.00,029.6,024.3,000.0,037.0,029.9,33.6,0000.0,0005.63,0003.78,0003.55
2023-08-28 18:18:00,SystemResetWarning,0838.0,4.99,000.00,029.7,024.5,000.0,037.1,029.7,33.8,0000.0,0005.61,0003.76,0003.55
2023-08-28 18:19:00,SystemResetWarning,0838.0,5.00,000.00,029.7,024.9,000.0,037.2,029.8,33.6,0000.0,0005.63,0003.77,0003.54
2023-08-28 18:20:00,SystemResetWarning,0838.0,5.01,000.00,029.7,025.3,000.0,037.3,029.9,33.5,0000.0,0005.64,0003.76,0003.53
2023-08-28 18:21:00,SystemResetWarning,0837.9,5.01,000.00,029.7,025.7,000.0,037.3,030.0,33.1,0000.0,0005.75,0003.76,0003.51
2023-08-28 18:22:00,SystemResetWarning,0837.9,4.99,000.00,029.8,026.1,000.0,037.4,030.1,33.5,0000.0,0005.68,0003.75,0003.50
2023-08-28 18:23:00,SystemResetWarning,0838.0,5.00,000.00,029.8,026.4,000.0,037.5,030.1,32.9,0000.0,0005.59,0003.75,0003.49
2023-08-28 18:24:00,SystemResetWarning,0838.0,4.99,000.00,029.8,026.7,000.0,037.6,030.2,33.0,0000.0,0006.00,0003.78,0003.49
2023-08-28 18:25:00,SystemResetWarning,0838.0,4.99,000.00,029.8,025.9,000.0,037.5,030.1,33.1,0000.0,0006.09,0003.76,0003.48
2023-08-28 18:26:00,SystemResetWarning,0837.8,5.00,000.00,029.8,024.5,000.0,037.4,029.9,33.1,0000.0,0006.71,0003.76,0003.48
2023-08-28 18:27:00,SystemResetWarning,0837.8,5.00,000.00,029.7,024.1,000.0,037.3,029.7,33.0,0000.0,0007.39,0003.78,0003.48
2023-08-28 18:28:00,SystemResetWarning,0837.8,5.00,000.00,029.6,024.3,000.0,037.4,029.5,33.4,0000.0,0007.41,0003.81,0003.49
2023-08-28 18:29:00,SystemResetWarning,0837.8,5.02,000.00,029.4,024.7,000.0,037.4,029.6,33.8,0000.0,0007.42,0003.82,0003.50
2023-08-28 18:30:00,SystemResetWarning,0837.8,5.00,000.00,029.4,025.1,000.0,037.5,029.7,34.0,0000.0,0007.39,0003.81,0003.52
2023-08-28 18:31:00,SystemResetWarning,0837.8,5.00,000.00,029.4,025.6,000.0,037.5,029.8,34.1,0000.0,0007.42,0003.83,0003.53
2023-08-28 18:32:00,SystemResetWarning,0837.9,5.01,000.00,029.4,026.0,000.0,037.5,029.9,33.6,0000.0,0007.38,0003.84,0003.55
2023-08-28 18:33:00,SystemResetWarning,0837.9,5.00,000.00,029.4,026.3,000.0,037.5,030.0,33.7,0000.0,0007.38,0003.83,0003.56
2023-08-28 18:34:00,SystemResetWarning,0838.0,5.00,000.00,029.4,026.6,000.0,037.5,030.1,33.9,0000.0,0007.30,0003.80,0003.56
2023-08-28 18:35:00,SystemResetWarning,0838.0,4.99,000.00,029.4,026.6,000.0,037.5,030.2,34.0,0000.0,0006.89,0003.77,0003.56
2023-08-28 18:36:00,SystemResetWarning,0838.1,5.00,000.00,029.4,025.4,000.0,037.4,029.9,34.0,0000.0,0006.62,0003.75,0003.56
2023-08-28 18:37:00,SystemResetWarning,0838.0,5.00,000.00,029.3,024.3,000.0,037.3,029.7,34.4,0000.0,0005.85,0003.73,0003.56
2023-08-28 18:38:00,SystemResetWarning,0838.0,5.00,000.00,029.2,024.1,000.0,037.2,029.6,34.8,0000.0,0005.15,0003.71,0003.54
2023-08-28 18:39:00,SystemResetWarning,0838.0,5.01,000.00,029.1,024.4,000.0,037.2,029.5,34.9,0000.0,0005.04,0003.69,0003.51
2023-08-28 18:40:00,SystemResetWarning,0837.9,4.99,000.00,029.0,024.8,000.0,037.2,029.6,35.4,0000.0,0005.05,0003.66,0003.49
2023-08-28 18:41:00,SystemResetWarning,0837.9,5.02,000.00,029.2,025.2,000.0,037.3,029.8,35.6,0000.0,0005.01,0003.62,0003.46
2023-08-28 18:42:00,SystemResetWarning,0837.9,5.01,000.00,029.5,025.6,000.0,037.3,030.1,35.2,0000.0,0004.90,0003.60,0003.45
2023-08-28 18:43:00,SystemResetWarning,0838.0,4.98,000.00,029.9,026.0,000.0,037.3,030.2,34.2,0000.0,0004.85,0003.59,0003.44
2023-08-28 18:44:00,SystemResetWarning,0837.9,4.99,000.00,030.1,026.3,000.0,037.4,030.3,33.7,0000.0,0004.91,0003.61,0003.44
2023-08-28 18:45:00,SystemResetWarning,0838.0,5.01,000.00,030.2,026.6,000.0,037.5,030.3,32.3,0000.0,0005.03,0003.64,0003.45
2023-08-28 18:46:00,SystemResetWarning,0837.9,5.00,000.00,030.3,026.8,000.0,037.6,030.4,31.7,0000.0,0005.09,0003.65,0003.45
2023-08-28 18:47:00,SystemResetWarning,0837.8,4.98,000.00,030.4,025.8,000.0,037.5,030.3,31.4,0000.0,0005.08,0003.66,0003.47
2023-08-28 18:48:00,SystemResetWarning,0837.8,5.00,000.00,030.4,024.5,000.0,037.5,030.0,31.6,0000.0,0005.05,0003.66,0003.47
2023-08-28 18:49:00,SystemResetWarning,0837.7,5.00,000.00,030.3,024.1,000.0,037.5,029.9,31.5,0000.0,0005.08,0003.69,0003.48
2023-08-28 18:50:00,SystemResetWarning,0837.7,5.01,000.00,030.2,024.4,000.0,037.6,029.7,32.1,0000.0,0005.52,0003.69,0003.49
2023-08-28 18:51:00,SystemResetWarning,0837.8,5.00,000.00,030.0,024.8,000.0,037.7,029.7,32.6,0000.0,0005.80,0003.71,0003.50
2023-08-28 18:52:00,SystemResetWarning,0837.8,5.00,000.00,030.0,025.2,000.0,037.7,029.9,32.6,0000.0,0005.71,0003.71,0003.51
2023-08-28 18:53:00,SystemResetWarning,0837.7,5.00,000.00,030.0,025.7,000.0,037.8,030.0,33.0,0000.0,0005.90,0003.73,0003.52
2023-08-28 18:54:00,SystemResetWarning,0837.8,5.00,000.00,029.9,026.0,000.0,037.8,030.1,32.9,0000.0,0006.03,0003.74,0003.54
2023-08-28 18:55:00,SystemResetWarning,0837.8,5.00,000.00,029.9,026.4,000.0,037.9,030.2,32.4,0000.0,0006.05,0003.75,0003.54
2023-08-28 18:56:00,SystemResetWarning,0837.8,5.00,000.00,029.9,026.6,000.0,037.9,030.2,32.4,0000.0,0006.04,0003.74,0003.54
2023-08-28 18:57:00,SystemResetWarning,0837.8,4.99,000.00,029.9,026.6,000.0,037.9,030.3,32.1,0000.0,0006.16,0003.76,0003.53
2023-08-28 18:58:00,SystemResetWarning,0837.9,4.99,000.00,029.9,025.2,000.0,037.7,030.0,32.0,0000.0,0006.27,0003.77,0003.53
2023-08-28 18:59:00,SystemResetWarning,0837.8,5.01,000.00,029.8,024.2,000.0,037.6,029.8,32.6,0000.0,0006.25,0003.75,0003.53
